DB0TGO-13 Weather Reports


time (UTC)temp
F
wind
direction
speed
knots
gust
knots
rain 1hr
in
rain 24hr
in
rain mn
in
humidity
%
barometer
mb
20260510090002 59 130 3.5 0.0 0.00 0.00 0.00 61 1008.9
20260510084502 58 150 5.2 0.0 0.00 0.00 0.00 61 1009.3
20260510083002 58 150 5.2 0.0 0.00 0.00 0.00 61 1009.3
20260510081502 57 140 5.2 0.0 0.00 0.00 0.00 64 1009.7
20260510080002 57 140 5.2 0.0 0.00 0.00 0.00 64 1009.7
20260510074503 55 140 5.2 0.0 0.00 0.00 0.00 68 1009.8
20260510073002 55 150 4.3 0.0 0.00 0.00 0.00 68 1009.8
20260510071502 52 150 4.3 0.0 0.00 0.00 0.00 71 1009.9
20260510070002 52 150 4.3 0.0 0.00 0.00 0.00 71 1009.9
20260510064502 51 150 4.3 0.0 0.00 0.00 0.00 77 1010.1
20260510063002 51 140 2.6 0.0 0.00 0.00 0.00 77 1010.1
20260510061502 49 140 2.6 0.0 0.00 0.00 0.00 80 1010.1
20260510060003 49 120 2.6 0.0 0.00 0.00 0.00 80 1010.1
20260510054502 47 120 3.5 0.0 0.00 0.00 0.00 83 1010.1
20260510053002 47 120 3.5 0.0 0.00 0.00 0.00 83 1010.1
20260510051502 45 120 3.5 0.0 0.00 0.00 0.00 87 1010.5
20260510050002 45 120 1.7 0.0 0.00 0.00 0.00 87 1010.5
20260510044502 42 120 1.7 0.0 0.00 0.00 0.00 95 1010.6
20260510043002 42 100 1.7 0.0 0.00 0.00 0.00 95 1010.6
20260510041503 41 50 0.9 0.0 0.00 0.00 0.00 95 1010.8
20260510040002 41 50 0.9 0.0 0.00 0.00 0.00 95 1010.8
20260510034502 44 130 2.6 0.0 0.00 0.00 0.00 90 1010.7
20260510033002 44 130 2.6 0.0 0.00 0.00 0.00 90 1010.7
20260510031502 45 130 2.6 0.0 0.00 0.00 0.00 88 1010.7
20260510030004 45 110 4.3 0.0 0.00 0.00 0.00 88 1010.7
20260509204502 51 130 0.9 0.0 0.00 0.00 0.00 72 1013.4
20260509203002 51 140 0.9 0.0 0.00 0.00 0.00 72 1013.4
20260509201502 54 100 2.6 0.0 0.00 0.00 0.00 65 1013.3
20260509200002 54 100 2.6 0.0 0.00 0.00 0.00 65 1013.3
20260509194502 55 100 2.6 0.0 0.00 0.00 0.00 61 1013.1
20260509193002 55 110 2.6 0.0 0.00 0.00 0.00 61 1013.1
20260509191502 57 110 2.6 0.0 0.00 0.00 0.00 58 1013.0
20260509190003 57 120 1.7 0.0 0.00 0.00 0.00 58 1013.0
20260509184502 58 120 2.6 0.0 0.00 0.00 0.00 57 1013.1
20260509183002 58 120 2.6 0.0 0.00 0.00 0.00 57 1013.1
20260509181502 59 110 5.2 0.0 0.00 0.00 0.00 55 1013.1
20260509180002 59 110 5.2 0.0 0.00 0.00 0.00 55 1013.1
20260509174502 59 110 5.2 0.0 0.00 0.00 0.00 52 1013.3
20260509173002 59 110 6.1 0.0 0.00 0.00 0.00 52 1013.3
20260509171502 60 110 6.1 0.0 0.00 0.00 0.00 51 1013.6
20260509170002 60 100 5.2 0.0 0.00 0.00 0.00 51 1013.6
20260509164503 62 100 5.2 0.0 0.00 0.00 0.00 49 1013.9
20260509163002 62 60 3.5 0.0 0.00 0.00 0.00 49 1013.9
20260509161502 61 100 1.7 0.0 0.00 0.00 0.00 49 1014.2
20260509160003 61 100 1.7 0.0 0.00 0.00 0.00 49 1014.2
20260509154502 60 100 1.7 0.0 0.00 0.00 0.00 49 1014.3
20260509153002 60 90 3.5 0.0 0.00 0.00 0.00 49 1014.3
20260509151503 60 90 3.5 0.0 0.00 0.00 0.00 49 1014.4
20260509150002 60 90 1.7 0.0 0.00 0.00 0.00 49 1014.4
20260509144502 59 90 1.7 0.0 0.00 0.00 0.00 55 1014.6
20260509143002 59 70 2.6 0.0 0.00 0.00 0.00 55 1014.6
20260509141502 60 70 2.6 0.0 0.00 0.00 0.00 49 1014.8
20260509140002 60 60 2.6 0.0 0.00 0.00 0.00 49 1014.8
20260509134502 61 190 4.3 0.0 0.00 0.00 0.00 43 1015.1
20260509133003 61 190 4.3 0.0 0.00 0.00 0.00 43 1015.1
20260509131502 59 70 1.7 0.0 0.00 0.00 0.00 49 1015.3
20260509130002 59 70 1.7 0.0 0.00 0.00 0.00 49 1015.3
20260509124502 59 70 1.7 0.0 0.00 0.00 0.00 52 1015.4
20260509123002 59 40 3.5 0.0 0.00 0.00 0.00 52 1015.4
20260509121502 59 40 3.5 0.0 0.00 0.00 0.00 49 1015.5
20260509120002 59 40 1.7 0.0 0.00 0.00 0.00 49 1015.5
20260509114502 58 60 2.6 0.0 0.00 0.00 0.00 49 1015.7
20260509113003 58 60 2.6 0.0 0.00 0.00 0.00 49 1015.7
20260509111502 60 60 2.6 0.0 0.00 0.00 0.00 48 1015.8
20260509110002 60 280 2.6 0.0 0.00 0.00 0.00 48 1015.8
20260509104502 59 280 2.6 0.0 0.00 0.00 0.00 53 1015.9
20260509103002 59 280 2.6 0.0 0.00 0.00 0.00 53 1015.9
20260509101502 57 280 2.6 0.0 0.00 0.00 0.00 52 1016.1
20260509100002 57 40 2.6 0.0 0.00 0.00 0.00 52 1016.1
20260509094502 56 40 2.6 0.0 0.00 0.00 0.00 59 1016.1
20260509093002 56 30 2.6 0.0 0.00 0.00 0.00 59 1016.1
20260509091503 55 40 2.6 0.0 0.00 0.00 0.00 66 1016.2